Change the Weather History Date:

Sunday, July 28, 2013

  Actual Average Record
Temperature  
Mean Temperature 75 °F -  
Max Temperature 84 °F 83 °F 98 °F (1999)
Min Temperature 70 °F 64 °F 57 °F (2001)
Cooling Degree Days 10    
Growing Degree Days 25 (Base 50)    
Moisture  
Dew Point 67 °F    
Average Humidity 78    
Maximum Humidity 93    
Minimum Humidity 56    
Precipitation  
Precipitation 0.26 in - - ()
Sea Level Pressure  
Sea Level Pressure 29.95 in    
Wind  
Wind Speed 4 mph (SSE)    
Max Wind Speed 14 mph    
Max Gust Speed 31 mph    
Visibility 8 miles    
Events Rain , Thunderstorm    
Averages and records for this station are not official NWS values.
T = Trace of Precipitation, MM = Missing Value Source: NWS Daily Summary

Daily Weather History Graph

Daily Weather History Graph

Search for Another Location

Airport or City:

Trip Planner

Search our weather history database for the weather conditions in past years. The results will help you decide how hot, cold, wet, or windy it might be!

Date:

Astronomy

Jul. 28, 2013 Rise Set
Actual Time 5:48 AM EDT 8:15 PM EDT
Civil Twilight 5:17 AM EDT 8:47 PM EDT
Nautical Twilight 4:39 AM EDT 9:25 PM EDT
Astronomical Twilight 3:55 AM EDT 10:08 PM EDT
Moon 11:32 PM EDT (7/28) 12:31 PM EDT (7/28)
Length of Visible Light 15h 29m
Length of Day
14h 26m
Waning Gibbous, 61% of the Moon is Illuminated
Jul 28
Waning Gibbous
Jul 29
Last Quarter
Aug 6
New
Aug 14
First Quarter
Aug 20
Full

Hourly Weather History & Observations

Time (EDT) Temp. Heat Index Dew Point Humidity Pressure Visibility Wind Dir Wind Speed Gust Speed Precip Events Conditions
12:51 AM 70.0 °F - 63.0 °F 78% 29.96 in 10.0 mi Calm Calm - N/A   Clear
1:51 AM 70.0 °F - 64.0 °F 81% 29.95 in 10.0 mi Calm Calm - N/A   Clear
2:51 AM 71.1 °F - 64.0 °F 78% 29.95 in 10.0 mi Calm Calm - N/A   Clear
3:51 AM 70.0 °F - 66.0 °F 87% 29.95 in 10.0 mi Calm Calm - N/A   Clear
4:51 AM 70.0 °F - 66.0 °F 87% 29.95 in 9.0 mi Calm Calm - N/A   Clear
5:51 AM 70.0 °F - 66.0 °F 87% 29.96 in 10.0 mi Calm Calm - N/A   Clear
6:51 AM 71.1 °F - 66.9 °F 87% 29.98 in 10.0 mi South 4.6 mph - N/A   Clear
7:51 AM 72.0 °F - 66.9 °F 84% 29.97 in 10.0 mi SSE 4.6 mph - N/A   Partly Cloudy
8:51 AM 75.9 °F - 64.9 °F 69% 29.97 in 10.0 mi SSE 8.1 mph 21.9 mph N/A   Clear
9:51 AM 75.9 °F - 61.0 °F 60% 29.96 in 10.0 mi SSE 5.8 mph - N/A   Overcast
10:51 AM 77.0 °F - 63.0 °F 62% 29.95 in 10.0 mi SSE 10.4 mph - N/A   Overcast
11:51 AM 77.0 °F - 66.0 °F 69% 29.96 in 10.0 mi SSE 8.1 mph - N/A   Overcast
12:44 PM 78.8 °F - 64.4 °F 61% 29.95 in 10.0 mi South 10.4 mph - N/A   Overcast
12:51 PM 78.1 °F - 64.0 °F 62% 29.96 in 10.0 mi SSE 8.1 mph - N/A   Overcast
1:51 PM 75.9 °F - 64.0 °F 67% 29.96 in 10.0 mi SSE 9.2 mph - 0.00 in Rain Light Rain
2:51 PM 78.1 °F - 66.9 °F 68% 29.93 in 10.0 mi SSE 9.2 mph 31.1 mph 0.00 in   Mostly Cloudy
3:51 PM 79.0 °F - 66.0 °F 64% 29.92 in 10.0 mi SE 11.5 mph - N/A   Clear
4:51 PM 80.1 °F 81.9 °F 64.9 °F 60% 29.91 in 10.0 mi SE 13.8 mph - N/A   Scattered Clouds
5:51 PM 80.1 °F 81.5 °F 63.0 °F 56% 29.95 in 10.0 mi South 6.9 mph - N/A   Overcast
6:29 PM 75.2 °F - 69.8 °F 83% 29.96 in 1.8 mi SW 5.8 mph - 0.07 in Rain Rain
6:37 PM 73.4 °F - 69.8 °F 88% 29.96 in 3.0 mi South 4.6 mph - 0.12 in Rain , Thunderstorm Thunderstorms and Rain
6:51 PM 73.9 °F - 70.0 °F 87% 29.96 in 3.0 mi ESE 6.9 mph - 0.22 in Rain , Thunderstorm Thunderstorms and Rain
7:08 PM 77.0 °F - 69.8 °F 78% 29.95 in 4.0 mi SE 8.1 mph 21.9 mph 0.06 in Rain , Thunderstorm Thunderstorms and Rain
7:51 PM 73.0 °F - 71.1 °F 93% 29.96 in 2.5 mi SSE 6.9 mph - N/A Rain , Thunderstorm Thunderstorms and Rain
8:04 PM 73.4 °F - 69.8 °F 88% 29.93 in 3.0 mi ESE 5.8 mph - 0.03 in Rain Light Rain
8:51 PM 73.0 °F - 71.1 °F 93% 29.94 in 7.0 mi SSE 4.6 mph - N/A   Scattered Clouds
9:51 PM 73.0 °F - 70.0 °F 90% 29.97 in 6.0 mi South 3.5 mph - N/A   Scattered Clouds
10:25 PM 73.4 °F - 69.8 °F 88% 29.97 in 5.0 mi South 3.5 mph - 0.01 in Rain Light Rain
10:51 PM 73.0 °F - 71.1 °F 93% 29.98 in 5.0 mi South 6.9 mph - 0.01 in Rain Light Rain
11:51 PM 73.0 °F - 71.1 °F 93% 29.96 in 9.0 mi Calm Calm - 0.03 in Rain Light Rain